Flag for USA

Past Weather in Town of Melbourne Beach, Florida, USA — Yesterday and Last 2 Weeks

Now
61 °F

Clear.


Feels Like: 61 °F
Forecast: 81 / 65 °F
Wind: No wind

Location: Melbourne International Airport

Current Time: Apr 23, 2019 at 6:11:00 am

Latest Report: Apr 23, 2019 at 4:53 am


Visibility: 10 mi

Pressure: 30.09 "Hg

Humidity: 87%

Dew Point: 57 °F

Location of Town of Melbourne BeachLocation

Past Weather in Town of Melbourne Beach — Graph

°F

Town of Melbourne Beach Temperature Yesterday

Maximum temperature yesterday: 79 °F (at 12:53 pm)
Minimum temperature yesterday: 55 °F (at 5:53 am)
Average temperature yesterday: 69 °F

High & Low Weather Summary for the Past Weeks

 TemperatureHumidityPressure
High89 °F (Apr 14, 12:53 pm)93% (Apr 9, 4:53 am)30.19 "Hg (Apr 9, 4:53 am)
Low55 °F (Apr 21, 6:53 am)29% (Apr 15, 5:53 pm)29.73 "Hg (Apr 9, 4:53 pm)
Average75 °F70%29.97 "Hg
* Reported Apr 8 4:53 am — Apr 23 4:53 am, Town of Melbourne Beach. Weather by CustomWeather, © 2019

Note: Actual official high and low records may vary slightly from our data, if they occured in-between our weather recording intervals... More about our weather records

Advertising

Town of Melbourne Beach Weather History for the Previous 24 Hours

Scroll right to see more
 ConditionsComfort  
Time TempWeatherWind HumidityBarometerVisibility
4:53 am
Tue, Apr 23
61 °FClear.No wind87%30.09 "Hg10 mi
3:53 am60 °FClear.3 mph86%30.10 "Hg10 mi
2:53 am60 °FClear.6 mph86%30.12 "Hg10 mi
1:53 am60 °FClear.No wind80%30.12 "Hg10 mi
12:53 am64 °FClear.No wind75%30.13 "Hg10 mi
11:53 pm
Mon, Apr 22
70 °FClear.6 mph66%30.13 "Hg10 mi
10:53 pm71 °FClear.6 mph63%30.13 "Hg10 mi
9:53 pm71 °FClear.8 mph63%30.13 "Hg10 mi
8:53 pm72 °FClear.9 mph59%30.12 "Hg10 mi
7:53 pm72 °FClear.9 mph57%30.12 "Hg10 mi
6:53 pm75 °FSunny.12 mph50%30.11 "Hg10 mi
5:53 pm76 °FSunny.12 mph45%30.12 "Hg10 mi
4:53 pm77 °FSunny.10 mph40%30.12 "Hg10 mi
3:53 pm78 °FSunny.10 mph37%30.13 "Hg10 mi
2:53 pm79 °FSunny.12 mph38%30.14 "Hg10 mi
1:53 pm79 °FSunny.9 mph35%30.16 "Hg10 mi
12:53 pm79 °FSunny.9 mph36%30.16 "Hg10 mi
11:53 am78 °FSunny.6 mph32%30.18 "Hg10 mi
10:53 am76 °FSunny.8 mph40%30.19 "Hg10 mi
9:53 am73 °FSunny.7 mph46%30.19 "Hg10 mi
8:53 am68 °FSunny.8 mph59%30.18 "Hg10 mi
7:53 am61 °FSunny.5 mph72%30.17 "Hg10 mi
6:53 am56 °FSunny.6 mph77%30.15 "Hg10 mi
Weather by CustomWeather, © 2019

See weather overview